EZY363V EGSS-EGPH

Flight info

Callsign EZY363V
Flight time 0h 55m
Altitude 32000
Route UTAVA Q75 BUZAD T420 TNT UN57 POL UN601 RIBEL DCT INPIP
Aircraft A320/M-SDE3FGHIRWY/LB1

Departure

Time 2026-05-03 20:42
Airport London Stansted Airport (EGSS)

Arrival

Time 2026-05-03 21:38
Airport Edinburgh Airport (EGPH)
Time Latitude Longitude Altitude Speed Heading
2026-05-03 20:18 51.89031 0.25704 359 ft 0 kts 42°
2026-05-03 20:32 51.89029 0.25701 349 ft 3 kts 43°
2026-05-03 20:32 51.89010 0.25671 359 ft 4 kts 44°
2026-05-03 20:32 51.88996 0.25649 359 ft 4 kts
2026-05-03 20:33 51.89008 0.25623 355 ft 4 kts 309°
2026-05-03 20:33 51.88993 0.25648 359 ft 4 kts 312°
2026-05-03 20:33 51.88979 0.25672 353 ft 0 kts 315°
2026-05-03 20:36 51.88993 0.25650 359 ft 10 kts 316°
2026-05-03 20:36 51.89065 0.25523 349 ft 18 kts 313°
2026-05-03 20:36 51.89154 0.25368 354 ft 19 kts 313°
2026-05-03 20:37 51.89208 0.25227 349 ft 15 kts 304°
2026-05-03 20:37 51.89241 0.25120 354 ft 9 kts 253°
2026-05-03 20:37 51.89199 0.25017 355 ft 16 kts 229°
2026-05-03 20:37 51.89097 0.24864 354 ft 22 kts 222°
2026-05-03 20:38 51.88980 0.24684 349 ft 24 kts 224°
2026-05-03 20:38 51.88852 0.24493 352 ft 26 kts 223°
2026-05-03 20:38 51.88714 0.24288 352 ft 28 kts 222°
2026-05-03 20:38 51.88572 0.24073 349 ft 29 kts 222°
2026-05-03 20:39 51.88419 0.23842 349 ft 30 kts 223°
2026-05-03 20:39 51.88263 0.23608 349 ft 31 kts 222°
2026-05-03 20:39 51.88104 0.23371 352 ft 32 kts 223°
2026-05-03 20:39 51.87940 0.23124 353 ft 32 kts 223°
2026-05-03 20:40 51.87800 0.22915 352 ft 25 kts 223°
2026-05-03 20:40 51.87669 0.22717 349 ft 26 kts 223°
2026-05-03 20:40 51.87555 0.22545 351 ft 18 kts 222°
2026-05-03 20:40 51.87518 0.22442 346 ft 10 kts 282°
2026-05-03 20:41 51.87562 0.22354 339 ft 11 kts 313°
2026-05-03 20:41 51.87628 0.22270 335 ft 13 kts 340°
2026-05-03 20:41 51.87707 0.22298 334 ft 12 kts 35°
2026-05-03 20:41 51.87759 0.22368 341 ft 7 kts 42°
2026-05-03 20:42 51.87822 0.22463 349 ft 31 kts 43°
2026-05-03 20:42 51.88179 0.22999 333 ft 105 kts 43°
2026-05-03 20:42 51.88864 0.24032 374 ft 157 kts 43°
2026-05-03 20:42 51.89653 0.25231 1051 ft 155 kts 42°
2026-05-03 20:43 51.90443 0.26421 1722 ft 160 kts 41°
2026-05-03 20:43 51.91315 0.27738 2111 ft 182 kts 42°
2026-05-03 20:43 51.92305 0.29183 2534 ft 202 kts 35°
2026-05-03 20:43 51.93700 0.29960 2924 ft 226 kts
2026-05-03 20:44 51.95297 0.29406 3467 ft 248 kts 331°
2026-05-03 20:44 51.96537 0.27395 4140 ft 262 kts 296°
2026-05-03 20:44 51.97045 0.24522 5063 ft 267 kts 281°
2026-05-03 20:44 51.97401 0.21550 6070 ft 270 kts 279°
2026-05-03 20:45 51.97716 0.18527 7008 ft 273 kts 278°
2026-05-03 20:45 51.98023 0.15442 7646 ft 278 kts 278°
2026-05-03 20:45 51.98338 0.12346 7850 ft 278 kts 278°
2026-05-03 20:45 51.98661 0.09269 7910 ft 278 kts 278°
2026-05-03 20:46 51.98926 0.06170 7919 ft 276 kts 269°
2026-05-03 20:46 51.98748 0.03075 7910 ft 275 kts 261°
2026-05-03 20:46 51.98587 -0.00025 7995 ft 279 kts 273°
2026-05-03 20:46 51.99099 -0.03080 8859 ft 284 kts 293°
2026-05-03 20:47 51.99971 -0.05969 9840 ft 286 kts 295°
2026-05-03 20:47 52.00890 -0.08917 10326 ft 305 kts 295°
2026-05-03 20:47 52.01897 -0.12113 10678 ft 326 kts 295°
2026-05-03 20:47 52.02949 -0.15427 11367 ft 334 kts 295°
2026-05-03 20:48 52.04022 -0.18799 12143 ft 338 kts 295°
2026-05-03 20:48 52.05110 -0.22226 12953 ft 342 kts 295°
2026-05-03 20:48 52.06203 -0.25689 13634 ft 347 kts 294°
2026-05-03 20:48 52.07302 -0.29177 13836 ft 348 kts 294°
2026-05-03 20:49 52.08408 -0.32686 14131 ft 351 kts 294°
2026-05-03 20:49 52.09524 -0.36238 14884 ft 353 kts 294°
2026-05-03 20:49 52.10643 -0.39808 15598 ft 356 kts 294°
2026-05-03 20:49 52.11772 -0.43413 16298 ft 359 kts 294°
2026-05-03 20:50 52.12906 -0.47046 16972 ft 363 kts 294°
2026-05-03 20:50 52.14052 -0.50724 17667 ft 366 kts 294°
2026-05-03 20:50 52.15211 -0.54450 18302 ft 370 kts 294°
2026-05-03 20:50 52.16378 -0.58203 18901 ft 373 kts 294°
2026-05-03 20:51 52.17554 -0.61988 19507 ft 376 kts 294°
2026-05-03 20:51 52.18738 -0.65805 20122 ft 379 kts 294°
2026-05-03 20:51 52.19929 -0.69655 20723 ft 382 kts 294°
2026-05-03 20:51 52.21129 -0.73548 21321 ft 385 kts 293°
2026-05-03 20:52 52.22339 -0.77475 21932 ft 388 kts 293°
2026-05-03 20:52 52.23647 -0.81355 22515 ft 394 kts 300°
2026-05-03 20:52 52.25365 -0.84881 23083 ft 402 kts 310°
2026-05-03 20:52 52.27492 -0.87899 23612 ft 409 kts 321°
2026-05-03 20:53 52.29922 -0.90387 24066 ft 414 kts 326°
2026-05-03 20:53 52.32398 -0.92833 24504 ft 418 kts 325°
2026-05-03 20:53 52.34889 -0.95311 24920 ft 421 kts 325°
2026-05-03 20:53 52.37399 -0.97822 25324 ft 424 kts 325°
2026-05-03 20:54 52.39924 -1.00355 25749 ft 427 kts 326°
2026-05-03 20:54 52.45025 -1.05471 26559 ft 433 kts 326°
2026-05-03 20:54 52.47600 -1.08056 26952 ft 436 kts 325°
2026-05-03 20:55 52.50194 -1.10661 27331 ft 439 kts 325°
2026-05-03 20:55 52.52805 -1.13292 27715 ft 441 kts 325°
2026-05-03 20:55 52.55426 -1.15933 28104 ft 443 kts 325°
2026-05-03 20:55 52.58064 -1.18590 28476 ft 446 kts 325°
2026-05-03 20:56 52.60716 -1.21265 28815 ft 449 kts 325°
2026-05-03 20:56 52.63389 -1.23965 29148 ft 452 kts 325°
2026-05-03 20:56 52.66076 -1.26685 29487 ft 455 kts 325°
2026-05-03 20:56 52.68778 -1.29424 29811 ft 457 kts 325°
2026-05-03 20:57 52.71494 -1.32179 30102 ft 460 kts 325°
2026-05-03 20:57 52.74226 -1.34953 30395 ft 462 kts 325°
2026-05-03 20:57 52.76965 -1.37745 30671 ft 463 kts 324°
2026-05-03 20:57 52.79710 -1.40552 30955 ft 464 kts 324°
2026-05-03 20:58 52.82461 -1.43367 31210 ft 466 kts 324°
2026-05-03 20:58 52.85219 -1.46196 31467 ft 467 kts 324°
2026-05-03 20:58 52.87977 -1.49030 31805 ft 466 kts 324°
2026-05-03 20:58 52.90732 -1.51863 31939 ft 463 kts 325°
2026-05-03 20:59 52.93422 -1.54623 31939 ft 449 kts 325°
2026-05-03 20:59 52.96056 -1.57323 31950 ft 443 kts 325°
2026-05-03 20:59 53.01270 -1.62698 31946 ft 439 kts 325°
2026-05-03 21:00 53.04751 -1.66240 31946 ft 439 kts 329°
2026-05-03 21:00 53.11358 -1.70692 31952 ft 442 kts 337°
2026-05-03 21:01 53.17158 -1.74270 31953 ft 442 kts 337°
2026-05-03 21:01 53.22920 -1.77847 31955 ft 441 kts 337°
2026-05-03 21:02 53.28626 -1.81417 31955 ft 441 kts 336°
2026-05-03 21:02 53.34363 -1.85004 31967 ft 440 kts 336°
2026-05-03 21:03 53.40134 -1.88625 31969 ft 440 kts 336°
2026-05-03 21:03 53.45822 -1.92201 31966 ft 440 kts 336°
2026-05-03 21:04 53.51587 -1.95834 31967 ft 439 kts 336°
2026-05-03 21:04 53.57308 -1.99454 31975 ft 439 kts 336°
2026-05-03 21:05 53.63022 -2.03089 31972 ft 439 kts 336°
2026-05-03 21:05 53.68736 -2.06724 31972 ft 439 kts 336°
2026-05-03 21:06 53.74440 -2.10371 31989 ft 438 kts 337°
2026-05-03 21:06 53.80054 -2.14099 31995 ft 436 kts 336°
2026-05-03 21:07 53.85663 -2.17983 32002 ft 435 kts 335°
2026-05-03 21:07 53.91263 -2.21853 31994 ft 434 kts 336°
2026-05-03 21:08 53.96848 -2.25697 31990 ft 433 kts 336°
2026-05-03 21:08 54.02439 -2.29531 32006 ft 432 kts 336°
2026-05-03 21:09 54.08012 -2.33361 31998 ft 432 kts 336°
2026-05-03 21:09 54.13575 -2.37219 32001 ft 431 kts 336°
2026-05-03 21:10 54.19131 -2.41077 32003 ft 431 kts 336°
2026-05-03 21:10 54.24676 -2.44934 32010 ft 430 kts 335°
2026-05-03 21:11 54.30216 -2.48812 32016 ft 429 kts 336°
2026-05-03 21:11 54.35737 -2.52677 32017 ft 428 kts 336°
2026-05-03 21:12 54.41247 -2.56540 32012 ft 428 kts 336°
2026-05-03 21:12 54.46748 -2.60414 31872 ft 428 kts 336°
2026-05-03 21:13 54.49495 -2.62353 31614 ft 426 kts 336°
2026-05-03 21:13 54.52230 -2.64288 31360 ft 425 kts 336°
2026-05-03 21:13 54.54958 -2.66223 31100 ft 423 kts 336°
2026-05-03 21:13 54.57675 -2.68149 30859 ft 421 kts 336°
2026-05-03 21:14 54.60378 -2.70074 30612 ft 417 kts 336°
2026-05-03 21:14 54.63045 -2.71975 30364 ft 413 kts 336°
2026-05-03 21:14 54.65701 -2.73867 30118 ft 412 kts 336°
2026-05-03 21:14 54.68381 -2.75778 29828 ft 408 kts 336°
2026-05-03 21:15 54.70939 -2.77607 29328 ft 402 kts 336°
2026-05-03 21:15 54.73547 -2.79473 28791 ft 397 kts 337°
2026-05-03 21:15 54.76085 -2.81295 28272 ft 393 kts 337°
2026-05-03 21:15 54.78594 -2.83100 27763 ft 389 kts 337°
2026-05-03 21:16 54.81076 -2.84886 27258 ft 385 kts 337°
2026-05-03 21:16 54.83541 -2.86657 26783 ft 381 kts 337°
2026-05-03 21:16 54.85982 -2.88412 26318 ft 377 kts 337°
2026-05-03 21:16 54.88394 -2.90143 25845 ft 375 kts 337°
2026-05-03 21:17 54.90819 -2.91889 25312 ft 379 kts 336°
2026-05-03 21:17 54.92431 -2.93054 24956 ft 378 kts 336°
2026-05-03 21:17 54.95684 -2.95409 24248 ft 377 kts 336°
2026-05-03 21:17 54.98102 -2.97164 23725 ft 376 kts 336°
2026-05-03 21:18 55.00512 -2.98915 23140 ft 375 kts 336°
2026-05-03 21:18 55.02874 -3.00634 22624 ft 372 kts 336°
2026-05-03 21:18 55.05258 -3.02368 22119 ft 369 kts 336°
2026-05-03 21:18 55.07620 -3.04090 21592 ft 367 kts 336°
2026-05-03 21:19 55.09969 -3.05802 21085 ft 365 kts 336°
2026-05-03 21:19 55.12304 -3.07506 20576 ft 363 kts 336°
2026-05-03 21:19 55.14627 -3.09204 20069 ft 361 kts 336°
2026-05-03 21:19 55.16947 -3.10901 19347 ft 360 kts 336°
2026-05-03 21:20 55.19238 -3.12576 18602 ft 353 kts 336°
2026-05-03 21:20 55.21483 -3.14221 17818 ft 347 kts 336°
2026-05-03 21:20 55.23683 -3.15843 17093 ft 340 kts 336°
2026-05-03 21:20 55.25854 -3.17449 16458 ft 336 kts 336°
2026-05-03 21:21 55.27950 -3.18986 16158 ft 319 kts 339°
2026-05-03 21:21 55.30069 -3.19961 15906 ft 312 kts 352°
2026-05-03 21:21 55.32232 -3.20067 15670 ft 311 kts
2026-05-03 21:21 55.34378 -3.19730 15365 ft 308 kts
2026-05-03 21:22 55.36504 -3.19393 15027 ft 306 kts
2026-05-03 21:22 55.38618 -3.19059 14689 ft 304 kts
2026-05-03 21:22 55.40714 -3.18728 14361 ft 303 kts
2026-05-03 21:22 55.42808 -3.18402 14042 ft 301 kts
2026-05-03 21:23 55.44885 -3.18080 13698 ft 299 kts
2026-05-03 21:23 55.46952 -3.17758 13335 ft 297 kts
2026-05-03 21:23 55.49007 -3.17436 12974 ft 296 kts
2026-05-03 21:23 55.51060 -3.17115 12588 ft 295 kts
2026-05-03 21:24 55.53102 -3.16799 12216 ft 294 kts
2026-05-03 21:24 55.55135 -3.16484 11850 ft 293 kts
2026-05-03 21:24 55.57159 -3.16171 11478 ft 291 kts
2026-05-03 21:24 55.59175 -3.15859 11123 ft 290 kts
2026-05-03 21:25 55.61185 -3.15545 10768 ft 289 kts
2026-05-03 21:25 55.63174 -3.15228 10531 ft 283 kts
2026-05-03 21:25 55.65097 -3.14931 10403 ft 273 kts
2026-05-03 21:25 55.66902 -3.15504 10288 ft 260 kts 333°
2026-05-03 21:26 55.68262 -3.17464 10115 ft 250 kts 304°
2026-05-03 21:26 55.68872 -3.20288 9805 ft 247 kts 274°
2026-05-03 21:26 55.68753 -3.23315 9420 ft 247 kts 261°
2026-05-03 21:26 55.68455 -3.26317 9048 ft 247 kts 260°
2026-05-03 21:27 55.68131 -3.29302 8684 ft 246 kts 260°
2026-05-03 21:27 55.67800 -3.32267 8416 ft 241 kts 259°
2026-05-03 21:27 55.67477 -3.35114 8292 ft 231 kts 260°
2026-05-03 21:27 55.67448 -3.37858 8145 ft 219 kts 288°
2026-05-03 21:28 55.68224 -3.40019 8045 ft 205 kts 323°
2026-05-03 21:28 55.69492 -3.40890 8027 ft 195 kts 353°
2026-05-03 21:28 55.70855 -3.41016 8025 ft 196 kts 359°
2026-05-03 21:28 55.72211 -3.41018 7868 ft 194 kts 359°
2026-05-03 21:29 55.73562 -3.41005 7584 ft 194 kts 360°
2026-05-03 21:29 55.74865 -3.41432 7318 ft 191 kts 329°
2026-05-03 21:29 55.75738 -3.43148 7022 ft 192 kts 291°
2026-05-03 21:29 55.75800 -3.45495 6706 ft 196 kts 255°
2026-05-03 21:30 55.75293 -3.47757 6401 ft 199 kts 246°
2026-05-03 21:30 55.74677 -3.49958 6123 ft 199 kts 245°
2026-05-03 21:30 55.74046 -3.52147 5863 ft 198 kts 244°
2026-05-03 21:30 55.73418 -3.54312 5606 ft 198 kts 244°
2026-05-03 21:31 55.72796 -3.56484 5333 ft 197 kts 249°
2026-05-03 21:31 55.72653 -3.58823 5054 ft 190 kts 288°
2026-05-03 21:31 55.73355 -3.60700 4777 ft 184 kts 328°
2026-05-03 21:31 55.74508 -3.61643 4482 ft 184 kts 342°
2026-05-03 21:32 55.75732 -3.62313 4218 ft 184 kts 344°
2026-05-03 21:32 55.76979 -3.62943 3960 ft 184 kts 344°
2026-05-03 21:32 55.78208 -3.63551 3711 ft 183 kts 345°
2026-05-03 21:32 55.79419 -3.64147 3472 ft 183 kts 344°
2026-05-03 21:33 55.80642 -3.64743 3223 ft 182 kts 344°
2026-05-03 21:33 55.81860 -3.65333 3047 ft 181 kts 345°
2026-05-03 21:33 55.83081 -3.65923 3001 ft 182 kts 345°
2026-05-03 21:33 55.84322 -3.66335 2986 ft 183 kts
2026-05-03 21:34 55.85427 -3.65281 3002 ft 185 kts 53°
2026-05-03 21:34 55.86079 -3.63294 3017 ft 187 kts 57°
2026-05-03 21:34 55.86772 -3.61328 2993 ft 187 kts 56°
2026-05-03 21:34 55.87447 -3.59391 2845 ft 184 kts 57°
2026-05-03 21:35 55.88105 -3.57478 2623 ft 179 kts 57°
2026-05-03 21:35 55.88749 -3.55598 2376 ft 176 kts 58°
2026-05-03 21:35 55.89381 -3.53748 2129 ft 173 kts 58°
2026-05-03 21:35 55.90010 -3.51906 1891 ft 170 kts 58°
2026-05-03 21:36 55.90620 -3.50120 1664 ft 167 kts 58°
2026-05-03 21:36 55.91219 -3.48364 1428 ft 165 kts 59°
2026-05-03 21:36 55.91809 -3.46633 1196 ft 162 kts 59°
2026-05-03 21:36 55.92371 -3.44980 984 ft 150 kts 59°
2026-05-03 21:37 55.92898 -3.43434 779 ft 139 kts 58°
2026-05-03 21:37 55.93389 -3.41984 591 ft 135 kts 58°
2026-05-03 21:37 55.93871 -3.40565 392 ft 133 kts 58°
2026-05-03 21:37 55.94349 -3.39165 214 ft 132 kts 58°
2026-05-03 21:38 55.94815 -3.37793 115 ft 119 kts 59°
2026-05-03 21:38 55.95159 -3.36781 114 ft 71 kts 59°
2026-05-03 21:38 55.95336 -3.36256 109 ft 40 kts 58°
2026-05-03 21:38 55.95427 -3.35985 111 ft 37 kts 59°
2026-05-03 21:39 55.95532 -3.35673 113 ft 15 kts 59°
2026-05-03 21:39 55.95567 -3.35544 113 ft 9 kts 89°
2026-05-03 21:39 55.95536 -3.35479 114 ft 5 kts 149°
2026-05-03 21:39 55.95512 -3.35455 113 ft 4 kts 150°
2026-05-03 21:40 55.95461 -3.35407 116 ft 10 kts 158°
2026-05-03 21:40 55.95412 -3.35461 116 ft 8 kts 237°
2026-05-03 21:40 55.95370 -3.35585 116 ft 15 kts 238°
2026-05-03 21:40 55.95303 -3.35784 115 ft 21 kts 238°
2026-05-03 21:41 55.95222 -3.36020 116 ft 23 kts 239°
2026-05-03 21:41 55.95134 -3.36282 113 ft 26 kts 238°
2026-05-03 21:41 55.95067 -3.36398 115 ft 8 kts 176°
2026-05-03 21:41 55.95020 -3.36397 113 ft 7 kts 214°
2026-05-03 21:42 55.94978 -3.36504 116 ft 11 kts 238°
2026-05-03 21:42 55.94949 -3.36540 115 ft 4 kts 166°
2026-05-03 21:42 55.94917 -3.36508 113 ft 5 kts 148°
2026-05-03 21:42 55.94905 -3.36496 114 ft 0 kts 148°
2026-05-03 21:43 55.94905 -3.36495 114 ft 0 kts 148°